Weather History for KPRO - January, 2014

Change the Weather History Date:

Sunday, January 5, 2014

  Actual Average Record
Temperature  
Mean Temperature -2 °F -  
Max Temperature 7 °F 24 °F 65 °F (1956)
Min Temperature -11 °F 6 °F -14 °F (1959)
Degree Days  
Heating Degree Days 66    
Moisture  
Dew Point -11 °F    
Average Humidity 58    
Maximum Humidity 70    
Minimum Humidity 46    
Precipitation  
Precipitation 0.00 in - - ()
Sea Level Pressure  
Sea Level Pressure 30.33 in    
Wind  
Wind Speed 21 mph (NNW)    
Max Wind Speed 29 mph    
Max Gust Speed 36 mph    
Visibility 10 miles    
Events      
Averages and records for this station are not official NWS values.
T = Trace of Precipitation, MM = Missing Value Source: NWS Daily Summary

Daily Weather History Graph

Daily Weather History Graph

Search for Another Location

Airport or City:

Trip Planner

Search our weather history database for the weather conditions in past years. The results will help you decide how hot, cold, wet, or windy it might be!

Date:

Astronomy

Jan. 05, 2014 Rise Set
Actual Time 7:44 AM CST 5:00 PM CST
Civil Twilight 7:12 AM CST 5:31 PM CST
Nautical Twilight 6:38 AM CST 6:06 PM CST
Astronomical Twilight 6:04 AM CST 6:40 PM CST
Moon 10:21 AM CST (1/5) 10:34 PM CST (1/5)
Length of Visible Light 10h 18m
Length of Day
9h 16m
Waxing Crescent, 25% of the Moon is Illuminated
Jan 5
Waxing Crescent
Jan 7
First Quarter
Jan 15
Full
Jan 23
Last Quarter
Jan 30
New

Hourly Weather History & Observations

Time (CST) Temp. Windchill Dew Point Humidity Pressure Visibility Wind Dir Wind Speed Gust Speed Precip Events Conditions
12:15 AM 7.7 °F -11.7 °F -0.6 °F 69% 30.20 in 10.0 mi North 19.6 mph 26.5 mph N/A   Mostly Cloudy
12:35 AM 7.7 °F -10.7 °F -0.8 °F 68% 30.21 in 10.0 mi North 17.3 mph - N/A   Overcast
12:55 AM 7.3 °F -11.7 °F -0.9 °F 69% 30.21 in 10.0 mi North 18.4 mph - N/A   Overcast
1:15 AM 7.2 °F -11.9 °F -1.1 °F 69% 30.21 in 10.0 mi North 18.4 mph 21.9 mph N/A   Mostly Cloudy
1:35 AM 6.6 °F -10.2 °F -1.3 °F 70% 30.21 in 10.0 mi North 13.8 mph - N/A   Overcast
1:55 AM 6.3 °F -13.1 °F -1.8 °F 69% 30.21 in 10.0 mi North 18.4 mph - N/A   Overcast
2:15 AM 6.1 °F -13.8 °F -2.4 °F 68% 30.21 in 10.0 mi North 19.6 mph 24.2 mph N/A   Overcast
2:35 AM 5.7 °F -14.8 °F -4.0 °F 64% 30.20 in 10.0 mi North 20.7 mph 26.5 mph N/A   Overcast
2:55 AM 5.5 °F -14.0 °F -4.0 °F 65% 30.21 in 10.0 mi North 18.4 mph 28.8 mph N/A   Overcast
3:15 AM 5.0 °F -15.7 °F -4.9 °F 64% 30.22 in 10.0 mi North 20.7 mph 28.8 mph N/A   Overcast
3:35 AM 5.0 °F -15.2 °F -4.5 °F 65% 30.22 in 10.0 mi North 19.6 mph 25.3 mph N/A   Overcast
3:55 AM 4.1 °F -16.9 °F -4.9 °F 66% 30.21 in 10.0 mi North 20.7 mph 28.8 mph N/A   Mostly Cloudy
4:15 AM 3.7 °F -17.9 °F -5.8 °F 65% 30.23 in 10.0 mi North 21.9 mph 28.8 mph N/A   Overcast
4:35 AM 3.6 °F -17.1 °F -6.7 °F 62% 30.22 in 10.0 mi North 19.6 mph 31.1 mph N/A   Overcast
4:55 AM 3.2 °F -18.6 °F -7.4 °F 61% 30.23 in 10.0 mi North 21.9 mph 33.4 mph N/A   Overcast
5:15 AM 2.8 °F -20.4 °F -7.6 °F 62% 30.23 in 10.0 mi North 25.3 mph - N/A   Overcast
5:35 AM 2.3 °F -19.8 °F -7.4 °F 64% 30.24 in 10.0 mi North 21.9 mph 28.8 mph N/A   Overcast
5:55 AM 2.1 °F -20.5 °F -7.8 °F 63% 30.24 in 10.0 mi North 23.0 mph 31.1 mph N/A   Overcast
6:15 AM 1.8 °F -20.0 °F -8.7 °F 62% 30.26 in 10.0 mi North 20.7 mph 29.9 mph N/A   Overcast
6:35 AM 1.6 °F -21.2 °F -8.3 °F 63% 30.26 in 10.0 mi NNW 23.0 mph 32.2 mph N/A   Overcast
6:55 AM 1.4 °F -21.4 °F -9.4 °F 61% 30.28 in 10.0 mi North 23.0 mph 29.9 mph N/A   Overcast
7:15 AM 1.0 °F -23.6 °F -9.9 °F 60% 30.29 in 10.0 mi North 27.6 mph 33.4 mph N/A   Overcast
7:35 AM 0.9 °F -22.2 °F -9.6 °F 62% 30.29 in 10.0 mi NNW 23.0 mph 29.9 mph N/A   Overcast
7:55 AM 0.5 °F -22.6 °F -10.1 °F 61% 30.29 in 10.0 mi North 23.0 mph 31.1 mph N/A   Overcast
8:15 AM 0.3 °F -22.4 °F -10.3 °F 61% 30.29 in 10.0 mi NNW 21.9 mph 27.6 mph N/A   Overcast
8:35 AM 0.5 °F -23.5 °F -10.7 °F 59% 30.31 in 10.0 mi North 25.3 mph 31.1 mph N/A   Mostly Cloudy
8:55 AM 0.3 °F -21.9 °F -11.0 °F 59% 30.31 in 10.0 mi North 20.7 mph 27.6 mph N/A   Mostly Cloudy
9:35 AM 0.5 °F -21.6 °F -11.4 °F 57% 30.33 in 10.0 mi North 20.7 mph 26.5 mph N/A   Clear
9:55 AM 0.5 °F -20.6 °F -12.1 °F 55% 30.33 in 10.0 mi North 18.4 mph 24.2 mph N/A   Clear
10:15 AM 1.4 °F -18.8 °F -11.0 °F 56% 30.34 in 10.0 mi NNW 17.3 mph 20.7 mph N/A   Clear
10:35 AM 1.2 °F -19.6 °F -11.7 °F 55% 30.34 in 10.0 mi North 18.4 mph 23.0 mph N/A   Clear
10:55 AM 1.4 °F -20.5 °F -11.7 °F 54% 30.35 in 10.0 mi North 20.7 mph - N/A   Clear
11:15 AM 1.9 °F -18.7 °F -11.7 °F 53% 30.35 in 10.0 mi NNW 18.4 mph 24.2 mph N/A   Clear
11:35 AM 1.6 °F -19.7 °F -12.1 °F 53% 30.34 in 10.0 mi NNW 19.6 mph 26.5 mph N/A   Clear
11:55 AM 3.2 °F -18.1 °F -9.6 °F 55% 30.33 in 10.0 mi NNW 20.7 mph 25.3 mph N/A   Clear
12:15 PM 3.6 °F -16.6 °F -9.4 °F 55% 30.33 in 10.0 mi NNW 18.4 mph 26.5 mph N/A   Clear
12:35 PM 4.1 °F -18.3 °F -8.9 °F 55% 30.33 in 10.0 mi North 24.2 mph 28.8 mph N/A   Clear
12:55 PM 4.8 °F -16.4 °F -7.2 °F 58% 30.32 in 10.0 mi NNW 21.9 mph 29.9 mph N/A   Clear
1:15 PM 5.4 °F -16.2 °F -6.2 °F 59% 30.32 in 10.0 mi NNW 23.0 mph 29.9 mph N/A   Clear
1:55 PM 6.4 °F -13.3 °F -5.3 °F 59% 30.32 in 10.0 mi NNW 19.6 mph 28.8 mph N/A   Clear
2:15 PM 6.4 °F -14.3 °F -5.8 °F 57% 30.32 in 10.0 mi NNW 21.9 mph 27.6 mph N/A   Scattered Clouds
2:35 PM 7.3 °F -14.4 °F -4.9 °F 57% 30.32 in 10.0 mi NNW 25.3 mph 31.1 mph N/A   Mostly Cloudy
2:55 PM 7.2 °F -13.8 °F -4.9 °F 58% 30.33 in 10.0 mi NNW 23.0 mph 31.1 mph N/A   Mostly Cloudy
3:03 PM 6.8 °F -14.7 °F -5.8 °F 56% 30.34 in 10.0 mi NNW 24.2 mph 31.1 mph N/A   Mostly Cloudy
3:15 PM 6.8 °F -15.1 °F -6.7 °F 54% 30.34 in 10.0 mi NNW 25.3 mph 29.9 mph N/A   Scattered Clouds
3:35 PM 5.9 °F -14.5 °F -7.8 °F 53% 30.35 in 10.0 mi NW 20.7 mph 29.9 mph N/A   Clear
3:55 PM 5.0 °F -18.7 °F -7.1 °F 58% 30.37 in 10.0 mi NNW 28.8 mph 34.5 mph N/A   Mostly Cloudy
4:15 PM 3.9 °F -17.1 °F -8.5 °F 56% 30.38 in 10.0 mi NW 20.7 mph 32.2 mph N/A   Mostly Cloudy
4:35 PM 2.1 °F -20.9 °F -9.4 °F 59% 30.38 in 10.0 mi NNW 24.2 mph 28.8 mph N/A   Mostly Cloudy
4:55 PM 1.2 °F -19.6 °F -9.8 °F 60% 30.38 in 10.0 mi NNW 18.4 mph - N/A   Scattered Clouds
5:15 PM 0.7 °F -21.9 °F -14.8 °F 48% 30.39 in 10.0 mi NNW 21.9 mph 28.8 mph N/A   Clear
5:35 PM 0.1 °F -24.0 °F -15.3 °F 48% 30.40 in 10.0 mi NNW 25.3 mph 33.4 mph N/A   Clear
5:55 PM -0.6 °F -22.5 °F -14.8 °F 51% 30.41 in 10.0 mi NNW 19.6 mph 28.8 mph N/A   Clear
6:15 PM -1.3 °F -22.9 °F -13.0 °F 58% 30.41 in 10.0 mi NNW 18.4 mph 24.2 mph N/A   Clear
6:35 PM -2.2 °F -23.5 °F -14.8 °F 55% 30.41 in 10.0 mi NNW 17.3 mph - N/A   Clear
6:55 PM -2.6 °F -24.6 °F -14.8 °F 56% 30.42 in 10.0 mi NNW 18.4 mph 29.9 mph N/A   Clear
7:35 PM -3.8 °F -28.4 °F -18.2 °F 50% 30.43 in 10.0 mi NW 23.0 mph 29.9 mph N/A   Clear
7:55 PM -4.9 °F -29.3 °F -18.4 °F 52% 30.43 in 10.0 mi NW 21.9 mph 25.3 mph N/A   Clear
8:15 PM -5.3 °F -32.1 °F -21.5 °F 46% 30.43 in 10.0 mi NW 27.6 mph 35.7 mph N/A   Clear
8:35 PM -6.2 °F -31.5 °F -21.6 °F 47% 30.43 in 10.0 mi NW 23.0 mph 35.7 mph N/A   Clear
8:55 PM -6.9 °F -32.9 °F -22.2 °F 48% 30.44 in 10.0 mi NW 24.2 mph 31.1 mph N/A   Scattered Clouds
9:15 PM -7.6 °F -31.7 °F -22.2 °F 49% 30.44 in 10.0 mi NW 19.6 mph 32.2 mph N/A   Scattered Clouds
9:35 PM -8.3 °F -34.3 °F -23.1 °F 49% 30.44 in 10.0 mi NW 23.0 mph 32.2 mph N/A   Clear
9:55 PM -9.4 °F -36.3 °F -23.8 °F 49% 30.44 in 10.0 mi NW 24.2 mph 33.4 mph N/A   Clear
10:15 PM -9.8 °F -35.1 °F -23.4 °F 51% 30.44 in 10.0 mi NW 20.7 mph 26.5 mph N/A   Clear
10:35 PM -10.1 °F -35.6 °F -23.1 °F 53% 30.44 in 10.0 mi NW 20.7 mph 25.3 mph N/A   Clear
10:55 PM -10.3 °F -34.6 °F -23.3 °F 53% 30.44 in 10.0 mi NW 18.4 mph 25.3 mph N/A   Clear
11:15 PM -10.7 °F -33.8 °F -23.4 °F 53% 30.43 in 10.0 mi NW 16.1 mph 28.8 mph N/A   Clear
11:35 PM -10.7 °F -36.3 °F -23.8 °F 52% 30.43 in 10.0 mi NW 20.7 mph 29.9 mph N/A   Clear
11:55 PM -11.2 °F -37.0 °F -23.6 °F 54% 30.42 in 10.0 mi NW 20.7 mph 27.6 mph N/A   Clear